| time (UTC) | temp C | wind direction | speed KPH | gust KPH | rain 1hr cm | rain 24hr cm | rain mn cm | humidity % | barometer mb |
| 20260504081737 | 16 | 0.0 | 1.6 | 0.00 | 2.39 | 0.00 | 83 | 1014.8 | |
| 20260504080737 | 15 | 300 | 1.6 | 3.2 | 0.00 | 2.39 | 0.00 | 86 | 1014.7 |
| 20260504050738 | 12 | 0.0 | 0.0 | 0.00 | 2.79 | 0.00 | 93 | 1013.3 | |
| 20260504045737 | 12 | 343 | 1.6 | 4.8 | 0.00 | 2.79 | 0.00 | 93 | 1013.2 |
| 20260504044803 | 12 | 0.0 | 1.6 | 0.00 | 2.79 | 0.00 | 93 | 1013.2 | |
| 20260504043738 | 12 | 0.0 | 0.0 | 0.00 | 2.79 | 0.00 | 93 | 1013.2 | |
| 20260504042707 | 12 | 295 | 3.2 | 3.2 | 0.00 | 2.79 | 0.00 | 92 | 1013.2 |
| 20260504041737 | 12 | 0.0 | 0.0 | 0.00 | 2.79 | 0.00 | 93 | 1013.2 | |
| 20260504040737 | 12 | 0.0 | 0.0 | 0.00 | 2.79 | 0.00 | 92 | 1013.2 | |
| 20260504035737 | 12 | 0.0 | 3.2 | 0.00 | 2.79 | 0.00 | 92 | 1013.2 | |
| 20260504034737 | 12 | 0.0 | 4.8 | 0.00 | 2.79 | 0.00 | 92 | 1013.2 | |
| 20260504033737 | 13 | 0.0 | 1.6 | 0.00 | 2.79 | 0.00 | 92 | 1013.1 | |
| 20260504032737 | 13 | 0.0 | 0.0 | 0.00 | 2.79 | 0.00 | 92 | 1013.1 | |
| 20260504031738 | 12 | 0.0 | 0.0 | 0.00 | 3.20 | 0.00 | 92 | 1013.2 | |
| 20260504030737 | 12 | 0.0 | 0.0 | 0.00 | 3.61 | 0.00 | 92 | 1013.1 | |
| 20260504025758 | 12 | 0.0 | 0.0 | 0.00 | 3.99 | 0.00 | 92 | 1013.1 | |
| 20260504024738 | 11 | 0.0 | 0.0 | 0.00 | 3.99 | 0.00 | 92 | 1013.1 | |
| 20260504023738 | 11 | 0.0 | 0.0 | 0.00 | 3.99 | 0.00 | 92 | 1013.1 | |
| 20260504022738 | 12 | 0.0 | 0.0 | 0.00 | 3.99 | 0.00 | 92 | 1013.1 | |
| 20260504021737 | 12 | 0.0 | 0.0 | 0.00 | 4.19 | 0.00 | 92 | 1013.0 | |
| 20260504020742 | 12 | 0.0 | 0.0 | 0.00 | 4.19 | 0.00 | 92 | 1012.9 | |
| 20260504015738 | 12 | 0.0 | 0.0 | 0.00 | 4.19 | 0.00 | 92 | 1012.9 | |
| 20260504014803 | 12 | 0.0 | 0.0 | 0.00 | 4.19 | 0.00 | 92 | 1013.0 | |
| 20260504013738 | 12 | 0.0 | 0.0 | 0.00 | 4.19 | 0.00 | 92 | 1013.0 | |
| 20260504012738 | 13 | 0.0 | 0.0 | 0.00 | 4.39 | 0.00 | 92 | 1013.0 | |
| 20260504011737 | 13 | 0.0 | 0.0 | 0.00 | 4.39 | 0.00 | 91 | 1013.1 | |
| 20260504010738 | 13 | 0.0 | 0.0 | 0.00 | 4.39 | 0.00 | 91 | 1013.1 | |
| 20260504005737 | 13 | 0.0 | 0.0 | 0.00 | 4.39 | 0.00 | 91 | 1013.0 | |
| 20260504004738 | 13 | 0.0 | 0.0 | 0.00 | 4.39 | 0.00 | 91 | 1013.0 | |
| 20260504003758 | 13 | 0.0 | 0.0 | 0.00 | 4.39 | 0.00 | 91 | 1013.0 | |
| 20260504002738 | 13 | 0.0 | 0.0 | 0.00 | 4.39 | 0.00 | 91 | 1013.0 | |
| 20260504001738 | 13 | 0.0 | 0.0 | 0.00 | 4.39 | 0.00 | 91 | 1013.1 | |
| 20260504000738 | 13 | 0.0 | 0.0 | 0.00 | 4.39 | 0.00 | 91 | 1013.1 | |
| 20260503235738 | 13 | 301 | 3.2 | 4.8 | 0.00 | 4.39 | 0.00 | 91 | 1013.1 |
| 20260503234738 | 13 | 320 | 4.8 | 8.0 | 0.00 | 4.39 | 0.00 | 91 | 1013.1 |
| 20260503233738 | 13 | 0.0 | 0.0 | 0.00 | 4.39 | 0.00 | 91 | 1013.2 | |
| 20260503232738 | 13 | 0.0 | 0.0 | 0.00 | 4.39 | 0.00 | 91 | 1013.2 | |
| 20260503231738 | 13 | 0.0 | 3.2 | 0.00 | 4.39 | 0.00 | 91 | 1013.2 | |
| 20260503230738 | 13 | 302 | 3.2 | 4.8 | 0.00 | 4.39 | 0.00 | 91 | 1013.1 |
| 20260503225738 | 13 | 0.0 | 3.2 | 0.00 | 4.39 | 0.00 | 91 | 1013.1 | |
| 20260503224823 | 13 | 302 | 1.6 | 3.2 | 0.00 | 4.39 | 0.00 | 90 | 1013.2 |
| 20260503223738 | 13 | 262 | 4.8 | 8.0 | 0.00 | 4.39 | 0.00 | 90 | 1013.0 |
| 20260503222738 | 13 | 313 | 6.4 | 9.7 | 0.00 | 4.60 | 0.00 | 90 | 1013.1 |
| 20260503221758 | 13 | 0.0 | 0.0 | 0.00 | 4.80 | 0.00 | 90 | 1013.0 | |
| 20260503220738 | 13 | 0.0 | 0.0 | 0.00 | 5.59 | 0.00 | 90 | 1012.9 | |
| 20260503215738 | 14 | 309 | 3.2 | 4.8 | 0.00 | 6.60 | 6.20 | 89 | 1012.8 |
| 20260503214743 | 14 | 315 | 3.2 | 4.8 | 0.00 | 7.19 | 6.20 | 89 | 1012.9 |
| 20260503213743 | 14 | 308 | 3.2 | 6.4 | 0.00 | 8.99 | 6.20 | 89 | 1012.9 |
| 20260503212738 | 14 | 286 | 3.2 | 4.8 | 0.00 | 11.61 | 6.20 | 89 | 1012.7 |
| 20260503211738 | 15 | 310 | 8.0 | 11.3 | 0.00 | 11.61 | 6.20 | 88 | 1012.8 |
| 20260503210758 | 15 | 321 | 9.7 | 11.3 | 0.00 | 11.61 | 6.20 | 88 | 1012.9 |
| 20260503205803 | 15 | 324 | 8.0 | 9.7 | 0.00 | 11.61 | 6.20 | 87 | 1012.9 |
| 20260503204738 | 15 | 324 | 4.8 | 8.0 | 0.00 | 11.61 | 6.20 | 86 | 1012.9 |
| 20260503203758 | 15 | 310 | 6.4 | 8.0 | 0.00 | 11.61 | 6.20 | 86 | 1012.7 |
| 20260503202738 | 15 | 307 | 4.8 | 8.0 | 0.00 | 11.61 | 6.20 | 86 | 1012.6 |
| 20260503201803 | 15 | 292 | 3.2 | 4.8 | 0.00 | 11.61 | 6.20 | 87 | 1012.6 |
| 20260503200738 | 15 | 299 | 3.2 | 8.0 | 0.00 | 11.61 | 6.20 | 87 | 1012.5 |
| 20260503195739 | 15 | 299 | 4.8 | 6.4 | 0.00 | 11.61 | 6.20 | 87 | 1012.4 |
| 20260503194738 | 15 | 0.0 | 0.0 | 0.00 | 11.61 | 6.20 | 86 | 1012.3 | |
| 20260503193738 | 15 | 300 | 3.2 | 3.2 | 0.00 | 11.61 | 6.20 | 85 | 1012.2 |
| 20260503192752 | 16 | 0.0 | 0.0 | 0.00 | 11.61 | 6.20 | 85 | 1012.0 | |
| 20260503191738 | 16 | 0.0 | 0.0 | 0.00 | 11.61 | 6.20 | 85 | 1012.0 | |
| 20260503190743 | 16 | 0.0 | 0.0 | 0.00 | 11.61 | 6.20 | 84 | 1011.9 | |
| 20260503185803 | 16 | 302 | 1.6 | 3.2 | 0.00 | 11.61 | 6.20 | 84 | 1011.8 |
| 20260503184738 | 16 | 297 | 3.2 | 4.8 | 0.00 | 11.61 | 6.20 | 83 | 1011.7 |
| 20260503183739 | 16 | 0.0 | 3.2 | 0.00 | 11.61 | 6.20 | 84 | 1011.6 | |
| 20260503182745 | 16 | 297 | 0.0 | 1.6 | 0.00 | 11.61 | 6.20 | 83 | 1011.5 |
| 20260503181739 | 16 | 311 | 0.0 | 1.6 | 0.00 | 11.61 | 6.20 | 83 | 1011.6 |
| 20260503180759 | 16 | 0.0 | 0.0 | 0.00 | 11.61 | 6.20 | 83 | 1011.5 | |
| 20260503175743 | 16 | 0.0 | 3.2 | 0.00 | 11.61 | 6.20 | 82 | 1011.4 | |
| 20260503174739 | 16 | 280 | 4.8 | 4.8 | 0.00 | 11.61 | 6.20 | 82 | 1011.3 |
| 20260503173739 | 16 | 273 | 0.0 | 4.8 | 0.00 | 11.61 | 6.20 | 82 | 1011.2 |
| 20260503172743 | 16 | 296 | 3.2 | 6.4 | 0.00 | 11.61 | 6.20 | 81 | 1011.2 |
| 20260503171739 | 16 | 288 | 1.6 | 8.0 | 0.00 | 11.61 | 6.20 | 82 | 1011.2 |
| 20260503170743 | 16 | 294 | 3.2 | 6.4 | 0.00 | 11.61 | 6.20 | 82 | 1011.3 |
| 20260503150739 | 17 | 318 | 1.6 | 6.4 | 0.00 | 11.61 | 6.20 | 83 | 1011.2 |
| 20260503130739 | 16 | 281 | 4.8 | 9.7 | 0.20 | 11.61 | 6.20 | 87 | 1011.9 |
| 20260503110739 | 15 | 308 | 8.0 | 11.3 | 0.99 | 11.00 | 5.59 | 90 | 1012.1 |